Regional Weather Roundup
Issued by NWS

Home | Current Version | Previous Version | Text Only | Print | Product List | Glossary Off
Versions: 1 2 3 4 5 6 7 8 9 10 11 12 13 14 15 16 17 18 19 20 21 22 23 24 25 26 27 28 29 30 31 32 33 34 35 36 37 38 39 40 41 42 43 44 45 46 47 48 49 50

000
ASUS45 KTFX 082210
RWRMT
MONTANA REGIONAL WEATHER ROUNDUP
NATIONAL WEATHER SERVICE GREAT FALLS MT
300 PM MST MON FEB 08 2016

NOTE: "FAIR" INDICATES FEW OR NO CLOUDS BELOW 12000 FEET WITH NO
SIGNIFICANT WEATHER AND/OR OBSTRUCTIONS TO VISIBILITY.

MTZ001>007-043-082300-
WEST OF THE DIVIDE

CITY           SKY/WX    TMP DP  RH WIND       PRES   REMARKS
KALISPELL      PTSUNNY   40  27  59 CALM      30.55F
MISSOULA       MOSUNNY   40  24  53 CALM      30.57F
BUTTE          CLOUDY    40  29  64 SE7       30.51F
MULLAN PASS    SUNNY     40  29  64 SW5       30.53F
ANACONDA         N/A     46  28  49 NE6       30.50F
DEER LODGE       N/A     45  27  49 CALM      30.53S
HAMILTON         N/A     46  28  49 N3        30.54F
LIBBY            N/A     50  21  32 CALM        N/A
PLAINS           N/A     50  28  42 W1        30.51F
THOMPSON FALLS   N/A     51  30  44 S2        30.54F
$$

MTZ008-052>055-082300-
SOUTHWEST MONTANA

CITY           SKY/WX    TMP DP  RH WIND       PRES   REMARKS
BOZEMAN        CLOUDY    38  29  70 CALM      30.48F
DILLON         CLOUDY    39  30  70 SE3       30.50F
ENNIS          SUNNY     48  28  46 S9        30.55F
TWIN BRIDGES     N/A     38  26  62 E5        30.44F
$$

MTZ009-010-012-014-046-048-049-054-082300-
EAST SLOPES AND CENTRAL MONTANA

CITY           SKY/WX    TMP DP  RH WIND       PRES   REMARKS
CUT BANK       SUNNY     57  26  30 W21       30.31F
GREAT FALLS    CLOUDY    61  27  27 W17       30.34S
MALMSTROM AFB  CLOUDY    61  25  25 W16G24    30.34S
HELENA         SUNNY     51  34  52 W20G28    30.43F
CHOTEAU          N/A     59  28  31 W20G25    30.36S
CONRAD           N/A     59  30  33 SW14      30.32S
$$

MTZ011-013-016-021-045-047-050-051-082300-
NORTH CENTRAL MONTANA

CITY           SKY/WX    TMP DP  RH WIND       PRES   REMARKS
HAVRE          SUNNY     55  30  38 SW12      30.28F
LEWISTOWN      SUNNY     49  30  48 W13       30.32F
N BAR RANCH      N/A     52  27  37 NW18G26   30.32F
CHINOOK          N/A     55  28  35 W13       30.28S
$$

MTZ017>020-022>027-061-062-082300-
NORTHEAST MONTANA

CITY           SKY/WX    TMP DP  RH WIND       PRES   REMARKS
GLASGOW        CLOUDY    38  22  52 E6        30.28F
JORDAN           N/A     45  30  55 NW6       30.27F
SIDNEY         CLOUDY    37  12  35 N13       30.30F WCI  29
WOLF POINT     CLOUDY    38  20  48 SW5       30.30F
PLENTYWOOD       N/A     34  18  51 W9        30.28F WCI  26
POPLAR           N/A     36  19  51 SW7       30.30F WCI  30
SCOBEY           N/A     37  15  41 W1        30.23F
$$

MTZ028>42-056>058-082300-
SOUTHCENTRAL AND SOUTHEAST MONTANA

CITY           SKY/WX    TMP DP  RH WIND       PRES   REMARKS
BAKER          CLOUDY    40   8  26 NW17      30.28F
BILLINGS       MOSUNNY   58  24  27 NW21G35   30.33F
LIVINGSTON     CLOUDY    56  28  34 W26G33    30.42F
MILES CITY     CLOUDY    50  25  37 NW16      30.27F
EKALAKA          N/A     39   7  27 W15       30.22  WCI  30
FORSYTH          N/A     52  25  35 W10       30.29F
LAUREL           N/A     59  25  27 NW13      30.29F
ROUNDUP          N/A     59  25  27 NW17      30.19F
$$

REGIONAL REPORTS...DAKOTAS

CITY           SKY/WX    TMP DP  RH WIND       PRES   REMARKS
WILLISTON      CLOUDY    35  18  49 NW12      30.29F WCI  27
MINOT          CLOUDY    32  10  40 NW21      30.24S WCI  20
DICKINSON      CLOUDY    33  12  41 NW23G29   30.23F WCI  21
BEACH          CLOUDY    36   9  32 NW17      30.31S WCI  25
CROSBY         PTSUNNY   30  19  64 N12       30.32R WCI  21
TIOGA          CLOUDY    28  23  80 NW14      30.32R WCI  17
WATFORD CITY   CLOUDY    34  16  47 NW13G18   30.29F WCI  25
BISMARCK       CLOUDY    37  18  46 NW23G30   30.23F WCI  26
GRAND FORKS    BLWGSNOW  14   6  70 N28G40    30.21F VSB 1   WCI  -6
FARGO          MIX PCPN  14   5  67 N28       30.19S WCI  -6
BUFFALO SD       N/A     40   9  28 NW18      30.19F
RAPID CITY     CLOUDY    41   9  26 N20G35    30.24F
$$

REGIONAL REPORTS...WYOMING/IDAHO/WASHINGTON

CITY           SKY/WX    TMP DP  RH WIND       PRES   REMARKS
GILLETTE       SUNNY     45  27  49 NW17      30.29F
SHERIDAN       SUNNY     52  29  41 NW15      30.33S
BUFFALO WY     SUNNY     48  28  46 N22G31    30.32F
CODY           SUNNY     50  21  32 NE6       30.37F
YELLOWSTONE LA   N/A     33  20  58 SE3       30.55F
IDAHO FALLS    CLOUDY    27  24  89 N6        30.67F WCI  20
SALMON         CLOUDY    34  19  55 CALM      30.65F
BOISE          SUNNY     44  35  70 S14       30.65F
SPOKANE        PTSUNNY   46  32  58 NE6       30.55F
$$

REGIONAL REPORTS...ALBERTA

CITY           SKY/WX    TMP DP  RH WIND       PRES   REMARKS
EDMONTON       SUNNY     41  28  60 W6        30.23F
CALGARY        PTSUNNY   57  23  26 W14G23    30.23F
LETHBRIDGE     PTSUNNY   57  30  35 W31G41    30.26F
MEDICINE HAT   PTSUNNY   55  28  35 SW9       30.26S
WATERTON GATE    N/A     45  27  49 SW28G35     N/A
MILK RIVER       N/A     55  30  38 W21G26      N/A
$$

REGIONAL REPORTS...SASKATCHEWAN

CITY           SKY/WX    TMP DP  RH WIND       PRES   REMARKS
SWIFT CURRENT  CLOUDY    43  14  31 W7        30.21F
REGINA         CLOUDY    28  19  69 CALM      30.29R
SASKATOON      CLOUDY    32  23  69 S9        30.23F WCI  24
CYPRESS HILLS    N/A     46  21  36 NW8         N/A
VAL MARIE        N/A     46  23  39 NW9         N/A
ROCKGLEN         N/A     34  21  60 W7          N/A  WCI  28
ASSINIBOIA       N/A     39  28  65 W3          N/A
$$



USA.gov is the U.S. government's official web portal to all federal, state and local government web resources and services.